This demonstration page uses our WeatherBlox Daily Observations layout. Learn more.

Left ArrowRight Arrow

Hourly Observations for October 16, 2021

Temp ( °F °C ) Dew Point ( °F °C ) Humidity (%) Winds ( mph kmh ) Pressure ( in mb ) Visibility ( mi km ) Precip ( " mm )
12:53 am 00:53 Clear 53 11.7 26 -3.3 35 35 ENE 9 15 30.27 1025 10 16 N/A
1:53 am 01:53 Clear 51 10.6 27 -2.8 39 39 E 9 15 30.28 1026 10 16 N/A
2:53 am 02:53 Clear 53 11.7 30 -1.1 41 41 E 10 17 30.28 1025 10 16 N/A
3:53 am 03:53 Clear 48 8.9 29 -1.7 48 48 SE 5 7 30.29 1026 10 16 N/A
4:53 am 04:53 Clear 47 8.3 29 -1.7 50 50 N N/A 30.30 1026 10 16 N/A
5:53 am 05:53 Clear 42 5.6 28 -2.2 58 58 N 3 6 30.32 1027 10 16 N/A
6:53 am 06:53 Clear 39 3.9 25 -3.9 57 57 NNW 8 13 30.35 1028 10 16 N/A
7:53 am 07:53 Clear 38 3.3 26 -3.3 62 62 N 6 9 30.37 1029 10 16 N/A
8:53 am 08:53 Sunny 44 6.7 29 -1.7 55 55 N 5 7 30.39 1029 10 16 N/A
9:53 am 09:53 Sunny 53 11.7 32 undefined 45 45 E 3 6 30.40 1029 10 16 N/A
10:53 am 10:53 Sunny 59 15 33 0.6 38 38 SSE 10 17 30.40 1029 10 16 N/A
11:53 am 11:53 Sunny 63 17.2 32 undefined 31 31 SE 16 26 30.38 1029 10 16 N/A
12:53 pm 12:53 Sunny 65 18.3 31 -0.6 28 28 SE 12 19 30.36 1028 10 16 N/A
1:53 pm 13:53 Sunny 68 20 27 -2.8 21 21 ESE 13 20 30.32 1027 10 16 N/A
2:53 pm 14:53 Sunny 70 21.1 20 -6.7 15 15 ESE 16 26 30.27 1025 10 16 N/A
3:53 pm 15:53 Sunny 71 21.7 19 -7.2 14 14 SE 14 22 30.26 1025 10 16 N/A
4:53 pm 16:53 Sunny 71 21.7 19 -7.2 14 14 SSE 13 20 30.24 1024 10 16 N/A
5:53 pm 17:53 Sunny 71 21.7 19 -7.2 14 14 SE 14 22 30.24 1024 10 16 N/A
6:53 pm 18:53 Sunny 68 20 16 -8.9 13 13 SE 9 15 30.24 1024 10 16 N/A
7:53 pm 19:53 Clear 63 17.2 16 -8.9 16 16 ESE 5 7 30.26 1025 10 16 N/A
8:53 pm 20:53 Clear 58 14.4 17 -8.3 20 20 E 7 11 30.27 1025 10 16 N/A
9:53 pm 21:53 Clear 57 13.9 19 -7.2 23 23 ESE 9 15 30.28 1025 10 16 N/A
10:53 pm 22:53 Clear 57 13.9 21 -6.1 25 25 ESE 10 17 30.27 1025 10 16 N/A
11:53 pm 23:53 Clear 56 13.3 25 -3.9 30 30 ESE 10 17 30.27 1025 10 16 N/A

Powered by AerisWeather